Kitakyushu, Japan

5:27 AM JST on December 12, 2018 (GMT +0900)
Kitakyushu

Weather History for RJFR - October, 2018

Change the Weather History Date:

Friday, October 12, 2018

  Actual Average Record
Temperature  
Mean Temperature 64 °F -  
Max Temperature 68 °F 65 °F 80 °F (1999)
Min Temperature 59 °F 57 °F 57 °F (1997)
Degree Days  
Heating Degree Days 2    
Growing Degree Days 14 (Base 50)    
Moisture  
Dew Point 46 °F    
Average Humidity 52    
Maximum Humidity 68    
Minimum Humidity 43    
Precipitation  
Precipitation 0.00 in - - ()
Sea Level Pressure  
Sea Level Pressure 30.18 in    
Wind  
Wind Speed 10 mph ()    
Max Wind Speed 17 mph    
Max Gust Speed -    
Visibility 6.2 miles    
Events      
Averages and records for this station are not official NWS values.
T = Trace of Precipitation, MM = Missing Value Source: Averaged Metar Reports

Daily Weather History Graph

Daily Weather History Graph

Search for Another Location

Airport or City:

Astronomy

Oct. 12, 2018 Rise Set
Actual Time 6:18 AM JST 5:46 PM JST
Civil Twilight 5:53 AM JST 6:11 PM JST
Nautical Twilight 5:24 AM JST 6:40 PM JST
Astronomical Twilight 4:55 AM JST 7:09 PM JST
Moon 9:08 AM JST (10/12) 8:05 PM JST (10/12)
Length of Visible Light 12h 18m
Length of Day
11h 28m
Waxing Crescent, 10% of the Moon is Illuminated
Oct 12
Waxing Crescent
Oct 17
First Quarter
Oct 25
Full
Nov 1
Last Quarter
Nov 8
New

Hourly Weather History & Observations

Time (JST) Temp. Dew Point Humidity Pressure Visibility Wind Dir Wind Speed Gust Speed Precip Events Conditions
12:00 AM 60.8 °F 41.0 °F 48% 30.15 in 6.2 mi North 11.5 mph - N/A   Scattered Clouds
1:00 AM 60.8 °F 42.8 °F 52% 30.15 in 6.2 mi NNW 8.1 mph - N/A   Partly Cloudy
2:00 AM 60.8 °F 41.0 °F 48% 30.15 in 6.2 mi North 10.4 mph - N/A   Scattered Clouds
3:00 AM 60.8 °F 42.8 °F 52% 30.15 in 6.2 mi North 16.1 mph - N/A   Scattered Clouds
4:00 AM 59.0 °F 41.0 °F 51% 30.15 in 6.2 mi NNW 11.5 mph - N/A   Scattered Clouds
6:00 AM 59.0 °F 41.0 °F 51% 30.18 in 6.2 mi NNW 10.4 mph - N/A   Scattered Clouds
7:00 AM 59.0 °F 44.6 °F 59% 30.18 in 6.2 mi NW 9.2 mph - N/A   Partly Cloudy
8:00 AM 60.8 °F 42.8 °F 52% 30.21 in 6.2 mi NW 8.1 mph - N/A   Partly Cloudy
9:00 AM 64.4 °F 44.6 °F 49% 30.21 in 6.2 mi NW 8.1 mph - N/A   Partly Cloudy
10:00 AM 66.2 °F 46.4 °F 49% 30.21 in 6.2 mi North 9.2 mph - N/A   Partly Cloudy
11:00 AM 66.2 °F 46.4 °F 49% 30.21 in 6.2 mi North 5.8 mph - N/A   Mostly Cloudy
12:00 PM 66.2 °F 46.4 °F 49% 30.18 in 6.2 mi NW 5.8 mph - N/A   Mostly Cloudy
1:00 PM 68.0 °F 46.4 °F 46% 30.18 in 6.2 mi NW 5.8 mph - N/A   Scattered Clouds
2:00 PM 68.0 °F 48.2 °F 49% 30.12 in 6.2 mi North 6.9 mph - N/A   Scattered Clouds
3:00 PM 68.0 °F 44.6 °F 43% 30.15 in 6.2 mi North 11.5 mph - N/A   Scattered Clouds
4:00 PM 68.0 °F 46.4 °F 46% 30.15 in 6.2 mi North 13.8 mph - N/A   Scattered Clouds
5:00 PM 66.2 °F 44.6 °F 46% 30.18 in 6.2 mi North 15.0 mph - N/A   Partly Cloudy
6:00 PM 64.4 °F 46.4 °F 52% 30.18 in 6.2 mi North 15.0 mph - N/A   Partly Cloudy
7:00 PM 64.4 °F 48.2 °F 56% 30.18 in 6.2 mi North 17.3 mph - N/A   Partly Cloudy
8:00 PM 64.4 °F 50.0 °F 59% 30.21 in 6.2 mi NNE 15.0 mph - N/A   Partly Cloudy
9:00 PM 62.6 °F 50.0 °F 63% 30.21 in 6.2 mi NNE 16.1 mph - N/A   Partly Cloudy
10:00 PM 62.6 °F 50.0 °F 63% 30.21 in 6.2 mi NNE 15.0 mph - N/A   Partly Cloudy
11:00 PM 62.6 °F 51.8 °F 68% 30.21 in 6.2 mi NNE 17.3 mph - N/A   Partly Cloudy